Home > Weather > Lakeland > Past weeks

Flag for USA Past Weather in Lakeland, Florida, USA — Yesterday and Last 2 Weeks

Now
81 °F

Partly sunny.


Feels Like: 83 °F
Forecast: 70 / 89 °F
Wind: No wind

Location: Lakeland Regional

Current Time: May 30, 2016 at 10:05:39 PM

Latest Report: May 30, 2016 at 8:50 PM


Visibility: 10 mi

Pressure: 29.96 "Hg

Humidity: 66%

Dew Point: 68 °F

Location of LakelandLocation

Past Weather in Lakeland — Graph

°F

Lakeland Temperature Yesterday

Maximum temperature yesterday: 86 °F (at 11:50 AM)
Minimum temperature yesterday: 70 °F (at 11:35 PM)
Average temperature yesterday: 75 °F

High & Low Weather Summary for the Past Weeks

 TemperatureHumidityPressure
High91 °F (May 24, 4:54 PM)100% (May 16, 5:45 AM)30.22 "Hg (May 16, 5:45 AM)
Low63 °F (May 26, 4:35 AM)28% (May 24, 4:54 PM)29.89 "Hg (May 22, 3:54 PM)
Average75 °F78%30.04 "Hg
* Reported May 15 8:45 PM — May 30 8:50 PM, Lakeland, Weather by CustomWeather, © 2016

Note: Actual official high and low records may vary slightly from our data, if they occured in-between our weather recording intervals... More about our weather records

Advertising

Lakeland Weather History for the Previous 24 Hours

Scroll right to see more
 ConditionsComfort  
Time TempWeatherWind HumidityBarometerVisibility
8:50 PM
Mon, May 30
81 °FPartly sunny.No wind66%29.96 "Hg10 mi
7:50 PM82 °FScattered clouds.3 mph66%29.95 "Hg10 mi
6:50 PM79 °FScattered clouds.No wind65%29.95 "Hg10 mi
5:54 PM81 °FScattered clouds.7 mph62%29.93 "Hg10 mi
4:50 PM82 °FScattered showers. Scattered clouds.7 mph62%29.93 "Hg10 mi
3:52 PM86 °FScattered showers. Scattered clouds.16 mph55%29.95 "Hg10 mi
2:52 PM88 °FScattered showers. Scattered clouds.1 mph46%29.96 "Hg10 mi
1:50 PM90 °FScattered clouds.6 mph43%29.98 "Hg10 mi
12:50 PM88 °FScattered clouds.3 mph49%30.01 "Hg10 mi
11:50 AM86 °FScattered clouds.No wind55%30.03 "Hg10 mi
10:50 AM82 °FScattered clouds.5 mph66%30.03 "Hg10 mi
9:50 AM81 °FSunny.5 mph74%30.04 "Hg10 mi
8:50 AM79 °FSunny.5 mph79%30.03 "Hg10 mi
7:50 AM73 °FSunny.5 mph89%30.03 "Hg10 mi
6:50 AM70 °FClear.No wind88%30.01 "Hg10 mi
5:50 AM70 °FClear.No wind88%30.01 "Hg10 mi
5:15 AM68 °FClear.No wind94%30.01 "Hg10 mi
4:55 AM68 °FClear.No wind94%30.01 "Hg10 mi
4:15 AM68 °FClear.3 mph94%30.02 "Hg10 mi
3:55 AM70 °FPassing clouds.No wind94%30.01 "Hg10 mi
3:35 AM70 °FPassing clouds.No wind94%30.01 "Hg10 mi
3:15 AM70 °FPartly cloudy.No wind94%30.01 "Hg10 mi
2:55 AM70 °FPassing clouds.No wind94%30.02 "Hg10 mi
2:15 AM70 °FClear.No wind94%30.02 "Hg10 mi
1:55 AM70 °FClear.3 mph94%30.03 "Hg10 mi
1:15 AM70 °FClear.No wind94%30.04 "Hg10 mi
12:55 AM70 °FClear.3 mph94%30.05 "Hg10 mi
12:15 AM72 °FClear.No wind88%30.06 "Hg10 mi
11:55 PM
Sun, May 29
72 °FClear.3 mph88%30.06 "Hg10 mi
11:35 PM70 °FClear.5 mph94%30.07 "Hg10 mi
11:15 PM72 °FClear.5 mph94%30.06 "Hg10 mi
10:55 PM72 °FThundershowers. Passing clouds.6 mph94%30.06 "Hg10 mi
10:15 PM73 °FPassing clouds.6 mph89%30.07 "Hg10 mi
Weather by CustomWeather, © 2016

See weather overviewHow to use our weather pages